Time,TemperatureF,DewpointF,PressureIn,WindDirection,WindDirectionDegrees,WindSpeedMPH,WindSpeedGustMPH,Humidity,HourlyPrecipIn,Conditions,Clouds,dailyrainin,SoftwareType,DateUTC
2015-05-04 00:09:00,48.7,47.0,29.97,North,355,0.0,0.0,92,0.00,,,0.00,weatherlink.com 1.10,2015-05-04 07:09:00,
2015-05-04 00:24:00,48.8,46.0,29.97,NNE,29,0.0,3.0,91,0.00,,,0.00,weatherlink.com 1.10,2015-05-04 07:24:00,
2015-05-04 00:39:00,48.8,47.0,29.98,NE,42,0.0,1.0,92,0.00,,,0.00,weatherlink.com 1.10,2015-05-04 07:39:00,
2015-05-04 00:54:00,48.8,46.0,29.98,North,11,0.0,2.0,91,0.00,,,0.00,weatherlink.com 1.10,2015-05-04 07:54:00,
2015-05-04 01:09:00,48.8,46.0,29.98,NE,37,1.0,3.0,91,0.00,,,0.00,weatherlink.com 1.10,2015-05-04 08:09:00,
2015-05-04 01:24:00,48.7,46.0,29.98,NE,40,0.0,1.0,91,0.00,,,0.00,weatherlink.com 1.10,2015-05-04 08:24:00,
2015-05-04 01:39:00,48.8,46.0,29.98,NE,40,0.0,0.0,91,0.00,,,0.00,weatherlink.com 1.10,2015-05-04 08:39:00,
2015-05-04 01:54:00,48.7,46.0,29.97,NE,40,0.0,0.0,91,0.00,,,0.00,weatherlink.com 1.10,2015-05-04 08:54:00,
2015-05-04 02:09:00,48.7,46.0,29.98,NE,40,0.0,1.0,91,0.00,,,0.00,weatherlink.com 1.10,2015-05-04 09:09:00,
2015-05-04 02:24:00,48.7,46.0,29.97,NNE,33,0.0,2.0,91,0.00,,,0.00,weatherlink.com 1.10,2015-05-04 09:24:00,
2015-05-04 02:39:00,48.6,46.0,29.97,NNE,25,0.0,3.0,91,0.00,,,0.00,weatherlink.com 1.10,2015-05-04 09:39:00,
2015-05-04 02:54:00,48.6,46.0,29.97,NNE,25,0.0,0.0,91,0.00,,,0.00,weatherlink.com 1.10,2015-05-04 09:54:00,
2015-05-04 03:09:00,48.5,46.0,29.97,NNE,25,0.0,1.0,91,0.00,,,0.00,weatherlink.com 1.10,2015-05-04 10:09:00,
2015-05-04 03:24:00,48.5,46.0,29.98,NNE,25,0.0,0.0,92,0.00,,,0.00,weatherlink.com 1.10,2015-05-04 10:24:00,
2015-05-04 03:39:00,48.4,46.0,29.98,WNW,296,0.0,3.0,90,0.00,,,0.00,weatherlink.com 1.10,2015-05-04 10:39:00,
2015-05-04 03:54:00,48.4,46.0,29.98,WNW,296,0.0,0.0,90,0.00,,,0.00,weatherlink.com 1.10,2015-05-04 10:54:00,
2015-05-04 04:09:00,48.4,46.0,29.98,NNE,19,0.0,2.0,90,0.00,,,0.00,weatherlink.com 1.10,2015-05-04 11:09:00,
2015-05-04 04:24:00,48.3,46.0,29.98,SSE,157,0.0,2.0,90,0.00,,,0.00,weatherlink.com 1.10,2015-05-04 11:24:00,
2015-05-04 04:39:00,48.3,46.0,29.98,SW,231,0.0,0.0,90,0.00,,,0.00,weatherlink.com 1.10,2015-05-04 11:39:00,
2015-05-04 04:54:00,48.2,46.0,29.98,SW,231,0.0,0.0,91,0.00,,,0.00,weatherlink.com 1.10,2015-05-04 11:54:00,
2015-05-04 05:09:00,48.2,46.0,29.98,SW,231,0.0,1.0,91,0.00,,,0.00,weatherlink.com 1.10,2015-05-04 12:09:00,
2015-05-04 05:24:00,48.2,46.0,29.98,SW,231,0.0,1.0,91,0.00,,,0.00,weatherlink.com 1.10,2015-05-04 12:24:00,
2015-05-04 05:39:00,48.2,46.0,29.98,SW,231,0.0,0.0,91,0.00,,,0.00,weatherlink.com 1.10,2015-05-04 12:39:00,
2015-05-04 05:54:00,48.1,46.0,29.98,WSW,258,0.0,2.0,91,0.00,,,0.00,weatherlink.com 1.10,2015-05-04 12:54:00,
2015-05-04 06:09:00,48.2,46.0,29.99,WSW,258,0.0,0.0,92,0.00,,,0.00,weatherlink.com 1.10,2015-05-04 13:09:00,
2015-05-04 06:24:00,48.3,46.0,30.00,WSW,258,0.0,0.0,92,0.00,,,0.00,weatherlink.com 1.10,2015-05-04 13:24:00,
2015-05-04 06:39:00,48.3,46.0,30.00,NE,47,1.0,3.0,91,0.00,,,0.00,weatherlink.com 1.10,2015-05-04 13:39:00,
2015-05-04 06:54:00,48.3,46.0,30.01,NE,44,0.0,2.0,91,0.00,,,0.00,weatherlink.com 1.10,2015-05-04 13:54:00,
2015-05-04 07:09:00,48.2,46.0,30.02,NE,47,0.0,3.0,91,0.00,,,0.00,weatherlink.com 1.10,2015-05-04 14:09:00,
2015-05-04 07:25:00,48.1,45.0,30.02,NNW,338,1.0,6.0,90,0.00,,,0.00,weatherlink.com 1.10,2015-05-04 14:25:00,
2015-05-04 07:40:00,48.2,46.0,30.03,NNW,331,0.0,0.0,91,0.00,,,0.00,weatherlink.com 1.10,2015-05-04 14:40:00,
2015-05-04 07:55:00,48.5,46.0,30.03,NNE,15,2.0,2.0,90,0.00,,,0.00,weatherlink.com 1.10,2015-05-04 14:55:00,
2015-05-04 08:10:00,48.8,46.0,30.03,NE,43,0.0,2.0,89,0.00,,,0.00,weatherlink.com 1.10,2015-05-04 15:10:00,
2015-05-04 08:25:00,49.1,46.0,30.03,NE,43,0.0,1.0,88,0.00,,,0.00,weatherlink.com 1.10,2015-05-04 15:25:00,
2015-05-04 08:40:00,49.2,46.0,30.03,West,275,0.0,4.0,87,0.00,,,0.00,weatherlink.com 1.10,2015-05-04 15:40:00,
2015-05-04 08:55:00,49.5,46.0,30.03,NW,311,0.0,2.0,86,0.00,,,0.00,weatherlink.com 1.10,2015-05-04 15:55:00,
2015-05-04 09:10:00,49.9,46.0,30.03,NNE,32,0.0,3.0,86,0.00,,,0.00,weatherlink.com 1.10,2015-05-04 16:10:00,
2015-05-04 09:25:00,50.1,46.0,30.03,NW,306,0.0,2.0,85,0.00,,,0.00,weatherlink.com 1.10,2015-05-04 16:25:00,
2015-05-04 09:40:00,50.9,47.0,30.03,NNE,18,2.0,3.0,86,0.00,,,0.00,weatherlink.com 1.10,2015-05-04 16:40:00,
2015-05-04 09:55:00,51.4,46.0,30.03,NNW,338,0.0,2.0,82,0.00,,,0.00,weatherlink.com 1.10,2015-05-04 16:55:00,
2015-05-04 10:10:00,51.5,47.0,30.03,South,188,2.0,3.0,85,0.00,,,0.00,weatherlink.com 1.10,2015-05-04 17:10:00,
2015-05-04 10:25:00,52.1,47.0,30.03,NE,40,2.0,3.0,83,0.00,,,0.00,weatherlink.com 1.10,2015-05-04 17:25:00,
2015-05-04 10:40:00,53.7,49.0,30.04,NNE,22,3.0,3.0,84,0.00,,,0.00,weatherlink.com 1.10,2015-05-04 17:40:00,
2015-05-04 10:55:00,55.2,48.0,30.04,North,11,0.0,3.0,78,0.00,,,0.00,weatherlink.com 1.10,2015-05-04 17:55:00,
2015-05-04 11:10:00,55.9,50.0,30.04,SW,217,0.0,2.0,80,0.00,,,0.00,weatherlink.com 1.10,2015-05-04 18:10:00,
2015-05-04 11:25:00,56.1,49.0,30.04,NNE,22,0.0,5.0,77,0.00,,,0.00,weatherlink.com 1.10,2015-05-04 18:25:00,
2015-05-04 11:40:00,57.9,50.0,30.04,NE,49,0.0,8.0,76,0.00,,,0.00,weatherlink.com 1.10,2015-05-04 18:40:00,
2015-05-04 11:55:00,57.7,49.0,30.05,NE,53,1.0,9.0,74,0.00,,,0.00,weatherlink.com 1.10,2015-05-04 18:55:00,
2015-05-04 12:10:00,57.0,50.0,30.05,NE,51,1.0,6.0,77,0.00,,,0.00,weatherlink.com 1.10,2015-05-04 19:10:00,
2015-05-04 12:25:00,55.9,49.0,30.05,ENE,57,4.0,6.0,78,0.00,,,0.00,weatherlink.com 1.10,2015-05-04 19:25:00,
2015-05-04 12:40:00,54.2,48.0,30.06,NE,35,2.0,11.0,79,0.00,,,0.00,weatherlink.com 1.10,2015-05-04 19:40:00,
2015-05-04 12:56:00,53.9,48.0,30.06,NNE,13,0.0,12.0,81,0.00,,,0.00,weatherlink.com 1.10,2015-05-04 19:56:00,
2015-05-04 13:10:00,54.8,49.0,30.06,NNE,24,0.0,7.0,80,0.00,,,0.00,weatherlink.com 1.10,2015-05-04 20:10:00,
2015-05-04 13:25:00,55.2,48.0,30.06,NNW,333,2.0,9.0,78,0.00,,,0.00,weatherlink.com 1.10,2015-05-04 20:25:00,
2015-05-04 13:40:00,57.6,49.0,30.06,West,277,3.0,7.0,73,0.00,,,0.00,weatherlink.com 1.10,2015-05-04 20:40:00,
2015-05-04 13:56:00,58.9,50.0,30.05,ENE,66,0.0,4.0,73,0.00,,,0.00,weatherlink.com 1.10,2015-05-04 20:56:00,
2015-05-04 14:11:00,60.7,48.0,30.05,NNW,342,0.0,6.0,64,0.00,,,0.00,weatherlink.com 1.10,2015-05-04 21:11:00,
2015-05-04 14:26:00,61.7,48.0,30.04,WNW,287,0.0,7.0,62,0.00,,,0.00,weatherlink.com 1.10,2015-05-04 21:26:00,
2015-05-04 14:41:00,62.7,49.0,30.04,West,269,2.0,5.0,61,0.00,,,0.00,weatherlink.com 1.10,2015-05-04 21:41:00,